TimeEDT,TemperatureF,Dew PointF,Humidity,Sea Level PressureIn,VisibilityMPH,Wind Direction,Wind SpeedMPH,Gust SpeedMPH,PrecipitationIn,Events,Conditions,WindDirDegrees,DateUTC
12:15 AM,51.8,37.4,58,29.70,10.0,SW,8.1,-,N/A,,Clear,220,2011-10-21 04:15:00
12:35 AM,51.8,37.4,58,29.71,10.0,SW,5.8,-,N/A,,Clear,220,2011-10-21 04:35:00
1:15 AM,50.0,37.4,62,29.72,10.0,SW,6.9,-,N/A,,Clear,220,2011-10-21 05:15:00
1:35 AM,50.0,37.4,62,29.73,10.0,SW,6.9,-,N/A,,Clear,220,2011-10-21 05:35:00
2:15 AM,48.2,39.2,71,29.73,10.0,SW,8.1,-,N/A,,Clear,220,2011-10-21 06:15:00
2:35 AM,50.0,37.4,62,29.73,10.0,SW,6.9,-,N/A,,Clear,230,2011-10-21 06:35:00
2:55 AM,48.2,37.4,66,29.73,10.0,SW,5.8,-,N/A,,Clear,220,2011-10-21 06:55:00
3:15 AM,48.2,37.4,66,29.74,10.0,SW,8.1,-,N/A,,Clear,220,2011-10-21 07:15:00
3:35 AM,48.2,37.4,66,29.74,10.0,SW,5.8,-,N/A,,Clear,230,2011-10-21 07:35:00
3:55 AM,48.2,37.4,66,29.74,10.0,SW,4.6,-,N/A,,Clear,230,2011-10-21 07:55:00
4:15 AM,48.2,37.4,66,29.75,10.0,WSW,6.9,-,N/A,,Clear,240,2011-10-21 08:15:00
4:35 AM,46.4,37.4,71,29.76,10.0,SW,5.8,-,N/A,,Clear,230,2011-10-21 08:35:00
4:55 AM,46.4,37.4,71,29.76,10.0,SW,5.8,-,N/A,,Clear,220,2011-10-21 08:55:00
5:15 AM,46.4,37.4,71,29.77,10.0,SW,3.5,-,N/A,,Clear,230,2011-10-21 09:15:00
5:35 AM,46.4,37.4,71,29.78,10.0,SSW,4.6,-,N/A,,Clear,210,2011-10-21 09:35:00
5:45 AM,46.4,35.6,66,29.78,10.0,SW,5.8,-,N/A,,Clear,230,2011-10-21 09:45:00
5:55 AM,46.4,37.4,71,29.79,10.0,SW,4.6,-,N/A,,Clear,220,2011-10-21 09:55:00
7:45 AM,44.6,35.6,71,29.83,10.0,SW,5.8,-,N/A,,Clear,230,2011-10-21 11:45:00
8:45 AM,48.2,37.4,66,29.86,10.0,West,6.9,-,N/A,,Clear,260,2011-10-21 12:45:00
9:45 AM,51.8,37.4,58,29.87,10.0,West,8.1,-,N/A,,Partly Cloudy,260,2011-10-21 13:45:00
10:45 AM,53.6,37.4,54,29.88,10.0,West,9.2,19.6,N/A,,Mostly Cloudy,280,2011-10-21 14:45:00
11:45 AM,55.4,37.4,51,29.89,10.0,West,11.5,17.3,N/A,,Mostly Cloudy,270,2011-10-21 15:45:00
12:55 PM,55.4,37.4,51,29.89,10.0,West,6.9,17.3,N/A,,Mostly Cloudy,270,2011-10-21 16:55:00
1:45 PM,53.6,37.4,54,29.89,10.0,WNW,6.9,17.3,N/A,,Mostly Cloudy,290,2011-10-21 17:45:00
2:55 PM,55.4,37.4,51,29.90,10.0,West,11.5,-,N/A,,Mostly Cloudy,280,2011-10-21 18:55:00
3:50 PM,53.6,37.4,54,29.91,10.0,West,6.9,-,N/A,,Mostly Cloudy,270,2011-10-21 19:50:00
4:45 PM,53.6,37.4,54,29.93,10.0,West,11.5,-,N/A,,Overcast,280,2011-10-21 20:45:00
5:45 PM,53.6,37.4,54,29.95,10.0,West,5.8,-,N/A,,Overcast,270,2011-10-21 21:45:00
7:45 PM,48.2,37.4,66,29.97,10.0,West,5.8,-,N/A,,Clear,280,2011-10-21 23:45:00
9:15 PM,46.4,37.4,71,30.00,10.0,WSW,3.5,-,N/A,,Clear,250,2011-10-22 01:15:00
9:35 PM,46.4,37.4,71,30.00,10.0,West,4.6,-,N/A,,Clear,260,2011-10-22 01:35:00
9:55 PM,46.4,37.4,71,30.01,10.0,West,4.6,-,N/A,,Clear,270,2011-10-22 01:55:00
10:15 PM,46.4,37.4,71,30.01,10.0,West,5.8,-,N/A,,Clear,270,2011-10-22 02:15:00
10:55 PM,46.4,37.4,71,30.00,10.0,West,4.6,-,N/A,,Clear,270,2011-10-22 02:55:00
11:15 PM,46.4,37.4,71,30.00,10.0,West,3.5,-,N/A,,Clear,270,2011-10-22 03:15:00
11:35 PM,46.4,37.4,71,30.00,10.0,Calm,Calm,-,N/A,,Clear,0,2011-10-22 03:35:00
11:55 PM,46.4,37.4,71,30.00,10.0,WSW,3.5,-,N/A,,Clear,240,2011-10-22 03:55:00